FW2000 Weather Reports


Display with metric or nautical units.
time (UTC)temp
F
wind
direction
speed
MPH
gust
MPH
rain 1hr
in
rain 24hr
in
rain mn
in
humidity
%
barometer
mb
20260509053023 64 137 1.0 3.0 0.00 0.00 0.00 59 1015.2
20260509052523 64 137 1.0 3.0 0.00 0.00 0.00 59 1015.2
20260509052022 64 140 0.0 2.0 0.00 0.00 0.00 58 1015.2
20260509051523 64 140 1.0 2.0 0.00 0.00 0.00 59 1015.2
20260509051023 64 233 0.0 0.0 0.00 0.00 0.00 58 1015.2
20260509050522 65 234 0.0 1.0 0.00 0.00 0.00 58 1015.2
20260509050033 65 234 0.0 2.0 0.00 0.00 0.00 58 1015.2
20260509045522 65 235 0.0 2.0 0.00 0.00 0.00 58 1015.2
20260509045024 65 235 0.0 0.0 0.00 0.00 0.00 58 1015.2
20260509044522 65 236 0.0 0.0 0.00 0.00 0.00 58 1015.2
20260509044022 65 235 0.0 0.0 0.00 0.00 0.00 58 1015.1
20260509043524 65 236 0.0 2.0 0.00 0.00 0.00 57 1015.2
20260509043037 65 236 0.0 3.0 0.00 0.00 0.00 57 1015.1
20260509042522 65 235 1.0 3.0 0.00 0.00 0.00 57 1015.1
20260509042021 65 248 2.0 3.0 0.00 0.00 0.00 56 1015.0
20260509041521 65 250 1.0 3.0 0.00 0.00 0.00 57 1015.0
20260509041021 66 250 1.0 3.0 0.00 0.00 0.00 58 1014.9
20260509040520 66 250 0.0 2.0 0.00 0.00 0.00 58 1014.9
20260509040020 66 250 0.0 1.0 0.00 0.00 0.00 57 1014.9
20260509035520 66 250 0.0 1.0 0.00 0.00 0.00 56 1014.9
20260509035020 66 250 0.0 2.0 0.00 0.00 0.00 56 1014.9
20260509034519 66 250 1.0 2.0 0.00 0.00 0.00 55 1014.8
20260509034019 67 251 0.0 2.0 0.00 0.00 0.00 54 1014.9
20260509033520 67 251 0.0 2.0 0.00 0.00 0.00 53 1014.8
20260509033022 67 250 0.0 2.0 0.00 0.00 0.00 51 1014.8
20260509032519 67 250 0.0 2.0 0.00 0.00 0.00 50 1014.9
20260509032119 67 250 1.0 2.0 0.00 0.00 0.00 49 1014.8
20260509031520 68 250 1.0 2.0 0.00 0.00 0.00 48 1014.8
20260509031019 68 250 1.0 2.0 0.00 0.00 0.00 48 1014.8
20260509030521 68 250 1.0 3.0 0.00 0.00 0.00 47 1014.8
20260509030019 68 250 2.0 4.0 0.00 0.00 0.00 47 1014.8
20260509025517 69 260 2.0 4.0 0.00 0.00 0.00 47 1014.8
20260509025017 69 259 2.0 4.0 0.00 0.00 0.00 47 1014.8
20260509024517 70 259 2.0 6.0 0.00 0.00 0.00 48 1014.8
20260509024017 70 266 2.0 6.0 0.00 0.00 0.00 46 1014.7
20260509023516 70 251 2.0 4.0 0.00 0.00 0.00 48 1014.7
20260509023022 71 253 2.0 5.0 0.00 0.00 0.00 47 1014.6
20260509022518 71 286 2.0 5.0 0.00 0.00 0.00 48 1014.7
20260509022016 71 284 3.0 5.0 0.00 0.00 0.00 47 1014.6
20260509021520 71 285 2.0 5.0 0.00 0.00 0.00 47 1014.7
20260509021019 72 279 2.0 6.0 0.00 0.00 0.00 48 1014.7
20260509020517 72 283 3.0 6.0 0.00 0.00 0.00 48 1014.7
20260509020013 72 265 1.0 5.0 0.00 0.00 0.00 51 1014.7
20260509015517 72 286 2.0 10.0 0.00 0.00 0.00 50 1014.6
20260509015012 73 284 4.0 10.0 0.00 0.00 0.00 48 1014.7
20260509014513 73 290 2.0 9.0 0.00 0.00 0.00 50 1014.7
20260509014014 73 290 3.0 9.0 0.00 0.00 0.00 50 1014.7
20260509013512 73 290 2.0 9.0 0.00 0.00 0.00 49 1014.7
20260509013032 73 283 2.0 8.0 0.00 0.00 0.00 49 1014.9
20260509012511 73 286 2.0 10.0 0.00 0.00 0.00 50 1014.9
20260509012011 74 284 4.0 10.0 0.00 0.00 0.00 50 1014.9
20260509011511 74 285 2.0 7.0 0.00 0.00 0.00 50 1014.9
20260509011010 74 255 2.0 10.0 0.00 0.00 0.00 50 1014.8
20260509010513 74 263 3.0 11.0 0.00 0.00 0.00 48 1014.8
20260509010012 74 260 3.0 11.0 0.00 0.00 0.00 49 1014.8
20260509005509 74 278 4.0 10.0 0.00 0.00 0.00 48 1015.0
20260509005008 75 284 3.0 8.0 0.00 0.00 0.00 48 1015.0
20260509004526 75 275 4.0 8.0 0.00 0.00 0.00 45 1015.0
20260509004008 75 259 3.0 10.0 0.00 0.00 0.00 44 1015.0
20260509003507 76 282 4.0 10.0 0.00 0.00 0.00 43 1015.2
20260509003007 76 247 3.0 8.0 0.00 0.00 0.00 42 1015.1
20260509002505 76 279 3.0 8.0 0.00 0.00 0.00 41 1015.1
20260509002006 76 279 2.0 9.0 0.00 0.00 0.00 38 1015.2
20260509001505 76 273 3.0 10.0 0.00 0.00 0.00 38 1015.3
20260509001006 76 273 2.0 10.0 0.00 0.00 0.00 41 1015.3
20260509000503 76 244 3.0 9.0 0.00 0.00 0.00 39 1015.2
20260509000003 77 286 4.0 10.0 0.00 0.00 0.00 38 1015.3
20260508235502 77 267 4.0 10.0 0.00 0.00 0.00 36 1015.3
20260508235002 77 269 2.0 10.0 0.00 0.00 0.00 36 1015.4
20260508234500 77 284 2.0 10.0 0.00 0.00 0.00 35 1015.4
20260508233600 77 291 2.0 8.0 0.00 0.00 0.00 36 1015.4
20260508233140 77 282 2.0 8.0 0.00 0.00 0.00 36 1015.4
20260508232559 77 246 3.0 9.0 0.00 0.00 0.00 38 1015.5
20260508232059 77 234 2.0 9.0 0.00 0.00 0.00 37 1015.4
20260508231603 78 274 3.0 9.0 0.00 0.00 0.00 38 1015.5
20260508231100 77 258 2.0 11.0 0.00 0.00 0.00 42 1015.6
20260508230558 78 281 4.0 15.0 0.00 0.00 0.00 40 1015.6
20260508230100 78 277 6.0 15.0 0.00 0.00 0.00 40 1015.6
20260508225556 78 295 5.0 12.0 0.00 0.00 0.00 43 1015.7
20260508225055 77 296 7.0 11.0 0.00 0.00 0.00 40 1015.7
20260508224557 77 281 3.0 9.0 0.00 0.00 0.00 42 1015.7
20260508224054 77 294 2.0 7.0 0.00 0.00 0.00 43 1015.7
20260508223556 77 243 2.0 9.0 0.00 0.00 0.00 43 1015.7
20260508223054 78 236 3.0 14.0 0.00 0.00 0.00 38 1015.8
20260508222552 78 281 5.0 10.0 0.00 0.00 0.00 37 1015.8
20260508222052 78 232 3.0 11.0 0.00 0.00 0.00 45 1015.8
20260508221552 78 287 6.0 11.0 0.00 0.00 0.00 41 1015.8
20260508221052 77 306 4.0 10.0 0.00 0.00 0.00 40 1015.9
20260508220551 77 289 4.0 10.0 0.00 0.00 0.00 43 1015.9
20260508220054 77 214 3.0 13.0 0.00 0.00 0.00 45 1016.1
20260508215549 77 281 4.0 13.0 0.00 0.00 0.00 41 1016.1
20260508215049 77 304 5.0 13.0 0.00 0.00 0.00 45 1016.2
20260508214550 77 298 4.0 10.0 0.00 0.00 0.00 42 1016.2
20260508214047 77 284 5.0 11.0 0.00 0.00 0.00 41 1016.3
20260508213546 77 289 4.0 11.0 0.00 0.00 0.00 41 1016.4
20260508213046 77 300 3.0 10.0 0.00 0.00 0.00 38 1016.4
20260508212546 77 271 5.0 12.0 0.00 0.00 0.00 37 1016.5
20260508212046 78 276 4.0 14.0 0.00 0.00 0.00 40 1016.5
20260508211546 78 284 7.0 14.0 0.00 0.00 0.00 36 1016.5
20260508211045 78 288 4.0 10.0 0.00 0.00 0.00 36 1016.5
20260508210545 78 286 3.0 9.0 0.00 0.00 0.00 39 1016.5
20260508205544 78 284 4.0 10.0 0.00 0.00 0.00 40 1016.5
20260508205045 78 293 3.0 10.0 0.00 0.00 0.00 42 1016.5
20260508204543 78 304 3.0 9.0 0.00 0.00 0.00 42 1016.5
20260508204043 78 261 4.0 10.0 0.00 0.00 0.00 40 1016.5
20260508203543 78 302 3.0 8.0 0.00 0.00 0.00 46 1016.5
20260508203046 78 277 3.0 11.0 0.00 0.00 0.00 43 1016.6
20260508202544 78 258 3.0 11.0 0.00 0.00 0.00 43 1016.6
20260508202043 78 300 4.0 11.0 0.00 0.00 0.00 44 1016.6
20260508201542 77 278 2.0 9.0 0.00 0.00 0.00 48 1016.6
20260508201042 77 254 3.0 9.0 0.00 0.00 0.00 50 1016.5
20260508200543 77 275 3.0 12.0 0.00 0.00 0.00 47 1016.6
20260508200047 77 302 4.0 12.0 0.00 0.00 0.00 47 1016.6
20260508195541 77 273 5.0 12.0 0.00 0.00 0.00 49 1016.6
20260508195041 77 300 2.0 7.0 0.00 0.00 0.00 51 1016.7
20260508194546 76 274 3.0 9.0 0.00 0.00 0.00 49 1016.7
20260508194039 76 285 4.0 9.0 0.00 0.00 0.00 48 1016.8
20260508193538 77 293 3.0 12.0 0.00 0.00 0.00 48 1016.8
20260508193042 77 267 4.0 10.0 0.00 0.00 0.00 47 1016.8
20260508192537 78 296 3.0 10.0 0.00 0.00 0.00 46 1016.9
20260508192037 78 267 4.0 10.0 0.00 0.00 0.00 46 1016.9
20260508191537 78 280 3.0 9.0 0.00 0.00 0.00 49 1016.9
20260508191037 78 250 3.0 9.0 0.00 0.00 0.00 44 1016.9
20260508190534 78 286 3.0 8.0 0.00 0.00 0.00 45 1017.0
20260508190047 79 319 4.0 8.0 0.00 0.00 0.00 44 1017.0
20260508185533 79 262 2.0 9.0 0.00 0.00 0.00 45 1017.1
20260508185031 79 281 4.0 9.0 0.00 0.00 0.00 45 1017.2
20260508184552 79 323 1.0 5.0 0.00 0.00 0.00 46 1017.2
20260508184028 79 319 1.0 5.0 0.00 0.00 0.00 49 1017.3
20260508183526 78 281 1.0 3.0 0.00 0.00 0.00 44 1017.4
20260508183026 78 11 0.0 4.0 0.00 0.00 0.00 46 1017.5
20260508182524 77 258 1.0 4.0 0.00 0.00 0.00 42 1017.5
20260508182024 78 238 2.0 4.0 0.00 0.00 0.00 43 1017.6
20260508181539 78 283 0.0 5.0 0.00 0.00 0.00 42 1017.5
20260508181022 78 321 0.0 5.0 0.00 0.00 0.00 42 1017.5
20260508180521 78 295 1.0 5.0 0.00 0.00 0.00 40 1017.6
20260508180020 78 290 3.0 5.0 0.00 0.00 0.00 40 1017.6
20260508175519 78 291 1.0 8.0 0.00 0.00 0.00 41 1017.6
20260508175018 78 292 2.0 5.0 0.00 0.00 0.00 46 1017.6
20260508174517 77 58 2.0 4.0 0.00 0.00 0.00 44 1017.5
20260508174014 77 55 2.0 5.0 0.00 0.00 0.00 39 1017.5
20260508173513 77 36 2.0 5.0 0.00 0.00 0.00 42 1017.5
20260508173012 77 37 1.0 4.0 0.00 0.00 0.00 42 1017.5
20260508172515 76 38 1.0 5.0 0.00 0.00 0.00 40 1017.6
20260508172008 75 32 2.0 5.0 0.00 0.00 0.00 44 1017.6
20260508171508 75 85 2.0 5.0 0.00 0.00 0.00 45 1017.6
20260508171005 75 50 2.0 5.0 0.00 0.00 0.00 45 1017.6
20260508170505 74 43 2.0 5.0 0.00 0.00 0.00 48 1017.7
20260508170004 74 69 2.0 5.0 0.00 0.00 0.00 47 1017.7
20260508165503 74 46 2.0 4.0 0.00 0.00 0.00 48 1017.6
20260508165002 74 54 0.0 4.0 0.00 0.00 0.00 50 1017.7
20260508164501 73 48 1.0 6.0 0.00 0.00 0.00 46 1017.7
20260508164001 73 75 2.0 4.0 0.00 0.00 0.00 50 1017.6
20260508163603 73 71 2.0 6.0 0.00 0.00 0.00 48 1017.6
20260508163100 72 111 2.0 6.0 0.00 0.00 0.00 48 1017.6
20260508162556 72 103 1.0 6.0 0.00 0.00 0.00 48 1017.6
20260508162055 72 94 2.0 5.0 0.00 0.00 0.00 50 1017.5
20260508161554 71 91 1.0 5.0 0.00 0.00 0.00 50 1017.7
20260508161052 71 105 1.0 7.0 0.00 0.00 0.00 51 1017.5
20260508160552 70 107 2.0 7.0 0.00 0.00 0.00 51 1017.5
20260508160049 70 101 2.0 8.0 0.00 0.00 0.00 53 1017.5
20260508155548 70 101 2.0 9.0 0.00 0.00 0.00 53 1017.6
20260508155047 69 103 2.0 9.0 0.00 0.00 0.00 54 1017.5
20260508154545 69 117 3.0 8.0 0.00 0.00 0.00 50 1017.6
20260508154043 68 121 2.0 6.0 0.00 0.00 0.00 54 1017.5
20260508153541 68 94 2.0 7.0 0.00 0.00 0.00 53 1017.5
20260508153040 67 104 2.0 8.0 0.00 0.00 0.00 51 1017.6
20260508152539 67 126 3.0 8.0 0.00 0.00 0.00 51 1017.6
20260508152037 66 84 2.0 8.0 0.00 0.00 0.00 52 1017.6
20260508151536 66 90 3.0 10.0 0.00 0.00 0.00 54 1017.5
20260508151035 66 105 4.0 10.0 0.00 0.00 0.00 53 1017.4
20260508150532 65 91 3.0 9.0 0.00 0.00 0.00 53 1017.3
20260508150035 65 130 5.0 9.0 0.00 0.00 0.00 54 1017.5
20260508145530 65 115 4.0 10.0 0.00 0.00 0.00 54 1017.4
20260508145031 64 90 4.0 9.0 0.00 0.00 0.00 55 1017.5
20260508144544 64 106 4.0 10.0 0.00 0.00 0.00 54 1017.5
20260508144026 64 148 3.0 10.0 0.00 0.00 0.00 56 1017.4
20260508143524 63 98 3.0 9.0 0.00 0.00 0.00 57 1017.4
20260508143023 63 79 2.0 9.0 0.00 0.00 0.00 59 1017.4
20260508142521 63 107 2.0 8.0 0.00 0.00 0.00 59 1017.4
20260508142020 62 90 3.0 7.0 0.00 0.00 0.00 60 1017.4
20260508141518 62 92 3.0 8.0 0.00 0.00 0.00 59 1017.4
20260508141018 61 101 3.0 6.0 0.00 0.00 0.00 60 1017.3
20260508140516 61 109 3.0 6.0 0.00 0.00 0.00 61 1017.2
20260508140015 61 152 1.0 4.0 0.00 0.00 0.00 63 1017.3
20260508135514 61 101 1.0 7.0 0.00 0.00 0.00 60 1017.3
20260508135012 60 109 1.0 4.0 0.00 0.00 0.00 62 1017.2
20260508134510 60 95 0.0 5.0 0.00 0.00 0.00 62 1017.1
20260508134009 60 95 1.0 5.0 0.00 0.00 0.00 62 1017.1
20260508133508 59 70 2.0 4.0 0.00 0.00 0.00 63 1017.0
20260508133006 59 98 0.0 4.0 0.00 0.00 0.00 64 1017.0
20260508132504 59 85 2.0 6.0 0.00 0.00 0.00 64 1016.9
20260508132004 58 88 2.0 6.0 0.00 0.00 0.00 65 1017.0
20260508131504 58 89 3.0 7.0 0.00 0.00 0.00 65 1017.0
20260508131003 58 96 3.0 7.0 0.00 0.00 0.00 66 1016.9
20260508130502 58 115 2.0 4.0 0.00 0.00 0.00 67 1017.0
20260508130001 58 113 1.0 6.0 0.00 0.00 0.00 67 1016.9
20260508125600 59 121 2.0 8.0 0.00 0.00 0.00 67 1016.9
20260508125102 59 113 2.0 8.0 0.00 0.00 0.00 66 1016.8
20260508124601 59 100 2.0 7.0 0.00 0.00 0.00 66 1016.8
20260508124059 59 119 2.0 7.0 0.00 0.00 0.00 67 1016.8
20260508123558 59 104 2.0 7.0 0.00 0.00 0.00 66 1016.9
20260508123110 59 107 3.0 7.0 0.00 0.00 0.00 67 1016.8
20260508122557 59 85 3.0 6.0 0.00 0.00 0.00 67 1016.8
20260508122057 59 92 2.0 5.0 0.00 0.00 0.00 67 1016.7
20260508121605 59 92 1.0 4.0 0.00 0.00 0.00 67 1016.7
20260508121057 59 109 2.0 4.0 0.00 0.00 0.00 67 1016.7
20260508120557 59 106 1.0 7.0 0.00 0.00 0.00 67 1016.8
20260508120057 59 108 2.0 7.0 0.00 0.00 0.00 67 1016.7
20260508115557 59 107 4.0 8.0 0.00 0.00 0.00 68 1016.8
20260508115056 59 69 4.0 8.0 0.00 0.00 0.00 68 1016.8
20260508114556 59 105 3.0 9.0 0.00 0.00 0.00 68 1016.7
20260508114056 59 74 4.0 9.0 0.00 0.00 0.00 68 1016.8
20260508113555 59 79 4.0 7.0 0.00 0.00 0.00 69 1016.7
20260508113107 59 74 4.0 9.0 0.00 0.00 0.00 69 1016.7
20260508112554 59 65 4.0 9.0 0.00 0.00 0.00 69 1016.8
20260508112054 59 84 4.0 8.0 0.00 0.00 0.00 69 1016.8
20260508111605 59 111 2.0 7.0 0.00 0.00 0.00 69 1016.8
20260508111053 59 87 2.0 6.0 0.00 0.00 0.00 70 1016.8
20260508110553 59 93 3.0 5.0 0.00 0.00 0.00 70 1016.8
20260508110058 59 103 1.0 5.0 0.00 0.00 0.00 71 1016.7
20260508105552 59 80 1.0 8.0 0.00 0.00 0.00 71 1016.8
20260508105052 59 90 2.0 8.0 0.00 0.00 0.00 70 1016.7
20260508104550 59 113 1.0 6.0 0.00 0.00 0.00 70 1016.8
20260508104050 60 92 0.0 4.0 0.00 0.00 0.00 69 1016.7
20260508103549 60 103 1.0 7.0 0.00 0.00 0.00 69 1016.8
20260508103057 60 85 2.0 8.0 0.00 0.00 0.00 69 1016.7
20260508102548 60 89 3.0 9.0 0.00 0.00 0.00 69 1016.7
20260508102048 60 73 4.0 7.0 0.00 0.00 0.00 70 1016.7
20260508101548 60 104 3.0 9.0 0.00 0.00 0.00 70 1016.8
20260508101047 60 106 3.0 9.0 0.00 0.00 0.00 69 1016.8
20260508100546 60 81 2.0 8.0 0.00 0.00 0.00 69 1016.8
20260508100046 61 80 3.0 8.0 0.00 0.00 0.00 68 1016.9
20260508095546 61 85 2.0 9.0 0.00 0.00 0.00 69 1016.9
20260508095046 61 93 5.0 9.0 0.00 0.00 0.00 69 1016.8
20260508094545 60 90 4.0 8.0 0.00 0.00 0.00 70 1016.8
20260508094046 60 90 2.0 4.0 0.00 0.00 0.00 69 1016.8
20260508093548 60 86 1.0 7.0 0.00 0.00 0.00 69 1016.8
20260508093045 60 122 2.0 8.0 0.00 0.00 0.00 69 1016.8
20260508092546 60 75 5.0 8.0 0.00 0.00 0.00 70 1016.8
20260508092044 60 103 2.0 4.0 0.00 0.00 0.00 71 1016.8
20260508091552 60 133 1.0 4.0 0.00 0.00 0.00 71 1017.0
20260508091044 60 146 2.0 4.0 0.00 0.00 0.00 70 1016.9
20260508090545 60 144 1.0 4.0 0.00 0.00 0.00 70 1016.9
20260508090059 60 141 1.0 4.0 0.00 0.00 0.00 71 1016.9
20260508085542 60 130 1.0 6.0 0.00 0.00 0.00 71 1016.9
20260508085040 60 119 1.0 6.0 0.00 0.00 0.00 70 1016.9
20260508084540 61 103 2.0 4.0 0.00 0.00 0.00 70 1016.9
20260508084040 61 117 2.0 6.0 0.00 0.00 0.00 69 1016.9
20260508083540 61 117 3.0 6.0 0.00 0.00 0.00 66 1016.9
20260508083041 61 92 2.0 4.0 0.00 0.00 0.00 66 1016.9
20260508082539 61 111 2.0 8.0 0.00 0.00 0.00 65 1017.0
20260508082039 61 86 3.0 8.0 0.00 0.00 0.00 65 1017.0
20260508081538 61 115 3.0 6.0 0.00 0.00 0.00 66 1017.1
20260508081040 61 94 2.0 7.0 0.00 0.00 0.00 66 1017.2
20260508080536 61 86 3.0 7.0 0.00 0.00 0.00 66 1017.2
20260508080042 61 101 2.0 6.0 0.00 0.00 0.00 67 1017.2
20260508075535 61 85 3.0 6.0 0.00 0.00 0.00 66 1017.2
20260508075035 61 84 3.0 7.0 0.00 0.00 0.00 67 1017.2
20260508074541 61 67 3.0 8.0 0.00 0.00 0.00 67 1017.2
20260508074036 61 88 4.0 8.0 0.00 0.00 0.00 67 1017.1
20260508073538 61 80 3.0 7.0 0.00 0.00 0.00 67 1017.3
20260508073034 61 126 3.0 7.0 0.00 0.00 0.00 67 1017.3
20260508072535 61 78 4.0 7.0 0.00 0.00 0.00 67 1017.2
20260508072035 62 83 3.0 6.0 0.00 0.00 0.00 68 1017.3
20260508071545 62 95 3.0 4.0 0.00 0.00 0.00 68 1017.2
20260508071033 62 91 3.0 6.0 0.00 0.00 0.00 68 1017.3
20260508070529 62 81 3.0 6.0 0.00 0.00 0.00 68 1017.2
20260508070028 62 98 4.0 5.0 0.00 0.00 0.00 69 1017.0
20260508065527 62 90 3.0 7.0 0.00 0.00 0.00 70 1017.1
20260508065027 62 86 3.0 7.0 0.00 0.00 0.00 71 1017.1
20260508064529 62 90 3.0 6.0 0.00 0.00 0.00 72 1017.1
20260508064027 62 81 4.0 6.0 0.00 0.00 0.00 72 1017.0
20260508063527 62 95 2.0 6.0 0.00 0.00 0.00 74 1017.0
20260508063027 63 90 3.0 6.0 0.00 0.00 0.00 74 1017.0
20260508062526 63 83 3.0 5.0 0.00 0.00 0.00 74 1017.0
20260508062026 63 83 3.0 6.0 0.00 0.00 0.00 74 1017.1
20260508061526 63 88 2.0 6.0 0.00 0.00 0.00 77 1017.2
20260508061026 63 88 2.0 6.0 0.00 0.00 0.00 77 1017.1
20260508060528 63 89 2.0 4.0 0.00 0.00 0.00 77 1017.1
20260508060025 64 98 2.0 4.0 0.00 0.00 0.00 77 1017.2
20260508055525 64 86 2.0 4.0 0.00 0.00 0.00 77 1017.3
20260508055025 64 86 2.0 4.0 0.00 0.00 0.00 76 1017.2
20260508054525 64 90 2.0 4.0 0.00 0.00 0.00 76 1017.3
20260508054025 64 90 2.0 4.0 0.00 0.00 0.00 76 1017.3
20260508053527 64 90 2.0 4.0 0.00 0.00 0.00 75 1017.3